This is the latest recevied weather packets stored in our database for station/object N0HOT. If no packets are shown the sender has not sent any weather packets the latest 10 day(s).
| Time | Temp. | Humidity | Pressure | Rain* | Wind** | Luminosity | Snow |
|---|---|---|---|---|---|---|---|
| 1777157587 | 20.56° C | 38% | 1013.2 hPa | 0 mm | - | 202 W/m² | - |
| 1777157283 | 20.56° C | 36% | 1013.2 hPa | 0 mm | - | 163 W/m² | - |
| 1777156983 | 20.56° C | 35% | 1013.2 hPa | 0 mm | - | 171 W/m² | - |
| 1777156678 | 20.56° C | 35% | 1012.8 hPa | 0 mm | - | 194 W/m² | - |
| 1777156375 | 20.56° C | 34% | 1012.8 hPa | 0 mm | - | 213 W/m² | - |
| 1777156071 | 20.56° C | 36% | 1012.8 hPa | 0 mm | - | 216 W/m² | - |
| 1777155767 | 20.56° C | 36% | 1012.8 hPa | 0 mm | - | 225 W/m² | - |
| 1777155463 | 21.11° C | 33% | 1012.8 hPa | 0 mm | - | 167 W/m² | - |
| 1777155160 | 21.11° C | 34% | 1012.8 hPa | 0 mm | - | 228 W/m² | - |
| 1777154857 | 21.11° C | 32% | 1012.8 hPa | 0 mm | - | 250 W/m² | - |
| 1777154554 | 21.11° C | 34% | 1013.2 hPa | 0 mm | - | 279 W/m² | - |
| 1777154249 | 21.11° C | 35% | 1012.8 hPa | 0 mm | - | 314 W/m² | - |
| 1777153946 | 21.67° C | 34% | 1012.8 hPa | 0 mm | - | 424 W/m² | - |
| 1777153642 | 21.67° C | 33% | 1012.8 hPa | 0 mm | - | 482 W/m² | - |
| 1777153338 | 21.67° C | 33% | 1013.2 hPa | 0 mm | - | 468 W/m² | - |
| 1777153035 | 21.67° C | 34% | 1013.2 hPa | 0 mm | - | 472 W/m² | - |
| 1777152731 | 21.67° C | 35% | 1013.2 hPa | 0 mm | - | 404 W/m² | - |
| 1777152429 | 21.67° C | 35% | 1012.8 hPa | 0 mm | - | 452 W/m² | - |
| 1777152125 | 21.67° C | 34% | 1013.2 hPa | 0 mm | - | 484 W/m² | - |
| 1777151819 | 21.67° C | 32% | 1012.8 hPa | 0 mm | - | 489 W/m² | - |
| 1777151516 | 21.67° C | 32% | 1013.2 hPa | 0 mm | - | 533 W/m² | - |
| 1777151212 | 22.22° C | 35% | 1013.2 hPa | 0 mm | - | 583 W/m² | - |
| 1777150912 | 22.22° C | 32% | 1013.2 hPa | 0 mm | - | 567 W/m² | - |
| 1777150607 | 22.22° C | 31% | 1013.2 hPa | 0 mm | - | 614 W/m² | - |
| 1777150302 | 22.22° C | 31% | 1013.6 hPa | 0 mm | - | 597 W/m² | - |
* Rain latest hour (hover to see other rain measurements)
** Current wind speed in m/s (hover to see current wind gust speed)